Weather reports worldwide

Advertisment
Kinloss, United Kingdom (3066): temperature & dewpoint: 22.01.2020 08:00:00 - 28.01.2020 08:00:00 (GMT)Kinloss, United Kingdom (3066): temperature -20cm & temperature -100cm: 22.01.2020 08:00:00 - 28.01.2020 08:00:00 (GMT)Kinloss, United Kingdom (3066): wind speed & gusts: 22.01.2020 08:00:00 - 28.01.2020 08:00:00 (GMT)Kinloss, United Kingdom (3066): wind direction: 22.01.2020 08:00:00 - 28.01.2020 08:00:00 (GMT)Kinloss, United Kingdom (3066): reduced air pressure: 22.01.2020 08:00:00 - 28.01.2020 08:00:00 (GMT)Kinloss, United Kingdom (3066): visibility: 22.01.2020 08:00:00 - 28.01.2020 08:00:00 (GMT)Kinloss, United Kingdom (3066): sunshine duration: 22.01.2020 08:00:00 - 28.01.2020 08:00:00 (GMT)Kinloss, United Kingdom (3066): precipitation: 22.01.2020 08:00:00 - 28.01.2020 08:00:00 (GMT)
Date & Time tt [°C] td [°C] tt -20cm [°C] tt -100cm [°C] ff [km/h] ff [kn] fx [km/h] fx [kn] dd ppp [hPa] vv [km] sd [min] rr [mm]
28.01.2020 08:00:00 0,3 -0,4 - - 9 5 - - SW 982,4 29 0 0,0
28.01.2020 07:00:00 0,4 -0,1 - - 8 4 - - SSW 982,2 28 0 0,0
28.01.2020 06:00:00 0,5 -0,4 - - 5 3 - - SW 982,1 26 0 0,0
28.01.2020 05:00:00 0,8 -0,1 - - 8 4 - - SW 982,2 30 0 0,0
28.01.2020 04:00:00 1,4 0,2 - - 13 7 - - E 982,1 26 0 0,2
28.01.2020 03:00:00 0,8 -1,1 - - 4 2 - - ENE 982,7 35 0 0,0
28.01.2020 02:00:00 0,1 -2,7 - - 8 4 - - NNE 982,7 40 0 0,0
28.01.2020 01:00:00 1,0 -2,7 - - 13 7 - - SSE 983,1 40 0 0,0
28.01.2020 00:00:00 -0,3 -2,7 - - 11 6 - - ESE 983,7 40 - 0,0
27.01.2020 23:00:00 0,0 -3,5 - - 8 4 - - SSE 984,0 40 0 0,0
27.01.2020 22:00:00 -0,1 -2,9 - - 13 7 - - SE 984,4 40 0 0,0
27.01.2020 21:00:00 0,3 -2,5 - - 8 4 - - SE 984,6 40 0 0,0
27.01.2020 20:00:00 1,3 -2,0 - - 13 7 - - SSE 985,1 45 0 0,0
27.01.2020 19:00:00 2,1 -1,5 - - 11 6 - - SSW 985,0 50 0 0,0
27.01.2020 18:00:00 2,9 -1,3 - - 15 8 - - SSW 985,6 50 0 0,0
27.01.2020 17:00:00 2,6 -1,2 - - 18 10 - - SSW 985,4 50 0 0,0
27.01.2020 16:00:00 3,3 -1,3 - - 26 14 - - SSW 985,3 10 54 0,0
27.01.2020 15:00:00 3,9 -1,0 - - 21 11 46 25 SW 985,6 45 12 0,0
27.01.2020 14:00:00 5,3 -0,5 - - 21 11 - - SSW 985,7 50 54 0,0
27.01.2020 13:00:00 4,8 -2,0 - - 26 14 48 26 SW 985,7 50 60 0,0
27.01.2020 12:00:00 4,6 -1,2 - - 21 11 - - SSW 985,9 50 36 0,0
27.01.2020 11:00:00 4,8 -1,3 - - 21 11 - - SW 986,6 50 48 0,0
27.01.2020 10:00:00 3,4 -0,8 - - 21 11 48 26 SSW 986,4 50 36 0,0
27.01.2020 09:00:00 2,8 -0,3 6,2 6,4 24 13 - - SSW 986,2 55 0 0,0
27.01.2020 08:00:00 3,4 -0,3 - - 24 13 - - SSW 986,5 55 0 0,0
27.01.2020 07:00:00 3,6 -1,7 - - 15 8 - - SSW 986,7 45 0 0,0
27.01.2020 06:00:00 3,5 -1,7 - - 18 10 - - SSW 987,1 50 0 0,0
27.01.2020 05:00:00 3,6 -1,4 - - 16 9 - - S 987,9 45 0 0,0
27.01.2020 04:00:00 3,0 -1,8 - - 13 7 - - SSE 989,0 45 0 0,0
27.01.2020 03:00:00 2,4 -2,2 - - 11 6 - - ESE 990,2 35 0 0,0
27.01.2020 02:00:00 1,1 -2,2 - - 13 7 - - E 991,5 40 0 0,0
27.01.2020 01:00:00 0,9 -2,9 - - 15 8 - - ESE 993,2 40 0 0,0
27.01.2020 00:00:00 2,3 -2,9 - - 5 3 - - S 994,2 35 - 0,0
26.01.2020 23:00:00 1,9 -2,3 - - 16 9 - - SSW 995,0 35 0 0,0
26.01.2020 22:00:00 1,5 -1,7 - - 18 10 - - SSW 995,5 35 0 0,0
26.01.2020 21:00:00 2,3 -1,9 - - 15 8 - - SSW 995,9 40 0 0,0
26.01.2020 20:00:00 2,5 -1,7 - - 9 5 - - S 996,6 40 0 0,0
26.01.2020 19:00:00 2,6 -1,0 - - 11 6 - - SSW 996,9 45 0 0,0
26.01.2020 18:00:00 2,8 0,4 - - 8 4 - - SSW 996,8 45 0 0,0
26.01.2020 17:00:00 4,7 1,6 - - 18 10 - - WSW 996,5 45 0 0,0
26.01.2020 16:00:00 5,2 2,0 - - 18 10 - - WSW 995,7 35 6 0,2
26.01.2020 15:00:00 5,2 2,1 - - 22 12 - - W 995,4 7 0 0,0
26.01.2020 14:00:00 6,7 4,0 - - 16 9 - - SW 995,2 45 0 0,2
26.01.2020 13:00:00 5,8 3,8 - - 24 13 - - W 995,2 14 0 0,2
26.01.2020 12:00:00 7,7 4,0 - - 24 13 - - SW 994,7 60 0 0,0
26.01.2020 11:00:00 8,3 4,1 - - 26 14 - - WSW 994,4 60 0 0,0
26.01.2020 10:00:00 8,8 4,3 - - 18 10 - - SSW 993,7 60 0 0,0
26.01.2020 09:00:00 8,6 4,2 6,5 6,2 24 13 55 30 SSW 993,2 55 0 0,0
26.01.2020 08:00:00 9,0 4,3 - - 26 14 46 25 SSW 993,5 50 0 0,0
26.01.2020 07:00:00 9,0 3,7 - - 28 15 - - SSW 994,1 45 0 0,0
26.01.2020 06:00:00 8,3 3,5 - - 18 10 - - SSW 994,7 45 0 0,0
26.01.2020 05:00:00 8,6 3,4 - - 24 13 52 28 S 995,5 50 0 0,0
26.01.2020 04:00:00 8,3 3,5 - - 16 9 46 25 SSW 996,2 50 0 0,0
26.01.2020 03:00:00 8,3 3,2 - - 31 17 54 29 S 997,1 50 0 0,0
26.01.2020 02:00:00 8,3 3,3 - - 24 13 46 25 SSW 997,8 45 0 0,0
26.01.2020 01:00:00 8,2 3,3 - - 18 10 - - SSW 999,1 50 0 0,0
26.01.2020 00:00:00 8,2 3,1 - - 24 13 - - SSW 999,8 45 - 0,0
25.01.2020 23:00:00 8,2 2,9 - - 18 10 - - S 1000,3 45 0 0,0
25.01.2020 22:00:00 7,9 3,1 - - 28 15 - - SW 1001,2 40 0 0,0
25.01.2020 21:00:00 7,5 2,9 - - 21 11 46 25 SSW 1002,1 45 0 0,0
25.01.2020 20:00:00 8,0 3,0 - - 28 15 48 26 SSW 1002,4 50 0 0,0
25.01.2020 19:00:00 7,9 3,0 - - 28 15 - - SSW 1002,6 55 0 0,0
25.01.2020 18:00:00 8,0 2,9 - - 11 6 - - SSW 1003,3 50 0 0,0
25.01.2020 17:00:00 8,4 2,9 - - 18 10 - - SSW 1003,3 50 0 0,0
25.01.2020 16:00:00 9,0 2,8 - - 21 11 - - SSW 1003,4 55 6 0,0
25.01.2020 15:00:00 8,9 3,0 - - 5 3 48 26 S 1003,1 50 0 0,0
25.01.2020 14:00:00 9,1 3,0 - - 35 19 50 27 WSW 1003,4 55 0 0,0
25.01.2020 13:00:00 9,4 2,6 - - 26 14 52 28 SW 1005,0 55 0 0,0
25.01.2020 12:00:00 9,5 3,1 - - 29 16 52 28 SW 1005,3 45 12 0,0
25.01.2020 11:00:00 8,7 3,7 - - 24 13 - - SW 1005,7 55 0 0,0
25.01.2020 10:00:00 8,6 3,6 - - 24 13 - - SW 1005,8 50 0 0,0
25.01.2020 09:00:00 8,9 3,7 6,5 6,2 21 11 - - SSW 1005,7 55 0 0,0
25.01.2020 08:00:00 8,8 4,0 - - 21 11 - - SW 1006,1 55 0 0,0
25.01.2020 07:00:00 8,3 3,6 - - 16 9 52 28 SW 1006,4 55 0 0,0
25.01.2020 06:00:00 8,2 3,4 - - 31 17 57 31 SW 1006,8 60 0 0,0
25.01.2020 05:00:00 8,2 3,4 - - 29 16 52 28 WSW 1006,9 55 0 0,0
25.01.2020 04:00:00 8,3 4,0 - - 22 12 - - SW 1007,6 55 0 0,0
25.01.2020 03:00:00 8,6 4,6 - - 15 8 - - SW 1008,4 55 0 0,0
25.01.2020 02:00:00 8,7 5,6 - - 13 7 - - WSW 1009,4 55 0 0,0
25.01.2020 01:00:00 8,6 5,7 - - 9 5 - - SSW 1010,4 55 0 0,0
25.01.2020 00:00:00 9,0 5,4 - - 18 10 - - S 1011,2 55 - 0,0
24.01.2020 23:00:00 8,1 5,1 - - 18 10 - - SSW 1012,0 50 0 0,0
24.01.2020 22:00:00 5,2 3,7 - - 2 1 - - NE 1012,5 45 0 0,0
24.01.2020 21:00:00 5,2 2,9 - - 8 4 - - ENE 1013,3 35 0 0,0
24.01.2020 20:00:00 7,1 3,9 - - 13 7 - - SW 1013,8 35 0 0,0
24.01.2020 19:00:00 7,3 3,8 - - 13 7 - - SW 1014,6 30 0 0,0
24.01.2020 18:00:00 7,2 4,2 - - 16 9 - - SW 1015,0 27 0 0,0
24.01.2020 17:00:00 7,5 4,3 - - 18 10 - - SW 1015,1 29 0 0,0
24.01.2020 16:00:00 7,5 4,0 - - 11 6 - - SSW 1015,5 29 0 0,0
24.01.2020 15:00:00 7,7 3,9 - - 21 11 - - WSW 1015,7 29 0 0,0
24.01.2020 14:00:00 7,7 3,9 - - 16 9 - - SW 1016,2 30 18 0,0
24.01.2020 13:00:00 7,9 4,3 - - 18 10 - - WSW 1016,6 30 6 0,0
24.01.2020 12:00:00 7,3 3,9 - - 21 11 - - WSW 1017,2 30 6 0,0
24.01.2020 11:00:00 7,3 4,2 - - 18 10 - - SW 1017,2 30 0 0,0
24.01.2020 10:00:00 6,4 3,9 - - 11 6 - - S 1017,2 29 0 0,0
24.01.2020 09:00:00 5,5 3,1 6,7 6,2 15 8 - - SW 1017,0 30 0 0,0
24.01.2020 08:00:00 6,7 3,0 - - 18 10 - - WSW 1017,2 30 0 0,0
24.01.2020 07:00:00 6,4 3,4 - - 22 12 - - W 1017,0 30 0 0,0
24.01.2020 06:00:00 6,7 4,1 - - 21 11 - - WSW 1016,8 30 0 0,0
24.01.2020 05:00:00 6,8 4,6 - - 26 14 - - WSW 1016,4 30 0 0,0
24.01.2020 04:00:00 6,8 5,0 - - 13 7 - - SW 1016,7 30 0 0,0
24.01.2020 03:00:00 7,6 6,5 - - 15 8 - - WSW 1017,2 28 0 0,0
24.01.2020 02:00:00 8,0 7,1 - - 4 2 - - WSW 1017,6 30 0 0,0
24.01.2020 01:00:00 8,3 6,9 - - 13 7 - - WSW 1017,9 45 0 0,0
24.01.2020 00:00:00 8,1 7,2 - - 16 9 - - WSW 1018,1 50 - 0,0
23.01.2020 23:00:00 8,2 6,8 - - 22 12 - - SW 1018,3 45 0 0,0
23.01.2020 22:00:00 8,2 7,1 - - 29 16 - - W 1019,0 18 0 0,0
23.01.2020 21:00:00 9,7 6,2 - - 28 15 - - SW 1018,4 60 0 0,0
23.01.2020 20:00:00 9,7 6,2 - - 29 16 - - SW 1019,1 55 0 0,0
23.01.2020 19:00:00 9,6 6,1 - - 28 15 - - WSW 1019,6 55 0 0,0
23.01.2020 18:00:00 9,4 6,0 - - 26 14 - - WSW 1020,0 60 0 0,0
23.01.2020 17:00:00 9,5 5,9 - - 31 17 46 25 WSW 1020,0 55 0 0,0
23.01.2020 16:00:00 9,6 5,9 - - 35 19 52 28 SW 1020,2 60 24 0,0
23.01.2020 15:00:00 10,4 6,2 - - 26 14 - - SW 1021,1 55 18 0,0
23.01.2020 14:00:00 10,4 6,0 - - 26 14 55 30 SW 1022,2 60 24 0,0
23.01.2020 13:00:00 10,5 5,9 - - 29 16 46 25 SW 1022,8 55 30 0,0
23.01.2020 12:00:00 10,2 5,6 - - 29 16 - - SW 1023,7 - 42 0,0
23.01.2020 11:00:00 9,4 5,2 - - 22 12 54 29 SW 1024,5 55 0 0,0
23.01.2020 10:00:00 8,6 4,9 - - 29 16 50 27 SW 1025,2 60 0 0,0
23.01.2020 09:00:00 8,2 4,8 6,4 6,0 39 21 52 28 SW 1025,2 55 0 0,0
23.01.2020 08:00:00 8,2 4,8 - - 24 13 - - SW 1025,6 55 0 0,0
23.01.2020 07:00:00 8,2 4,9 - - 35 19 46 25 WSW 1025,9 60 0 0,0
23.01.2020 06:00:00 8,6 4,7 - - 26 14 52 28 WSW 1026,2 60 0 0,0
23.01.2020 05:00:00 8,8 4,9 - - 31 17 46 25 SW 1026,2 55 0 0,0
23.01.2020 04:00:00 9,5 5,2 - - 31 17 50 27 SW 1027,3 45 0 0,0
23.01.2020 03:00:00 9,7 6,2 - - 24 13 - - SW 1028,5 50 0 0,0
23.01.2020 02:00:00 9,5 5,7 - - 28 15 - - SW 1029,4 40 0 0,0
23.01.2020 01:00:00 9,7 6,2 - - 22 12 - - WSW 1030,4 40 0 0,0
23.01.2020 00:00:00 9,9 6,3 - - 24 13 - - SW 1030,0 45 - 0,0
22.01.2020 23:00:00 9,8 6,5 - - 24 13 - - SW 1031,0 50 0 0,0
22.01.2020 22:00:00 10,4 7,0 - - 15 8 - - SW 1031,2 50 0 0,0
22.01.2020 21:00:00 10,2 7,3 - - 16 9 - - SW 1032,0 55 0 0,0
22.01.2020 20:00:00 9,9 7,7 - - 13 7 - - SW 1032,8 50 0 0,0
22.01.2020 19:00:00 10,9 8,2 - - 18 10 - - WSW 1033,3 50 0 0,0
22.01.2020 18:00:00 10,6 8,4 - - 15 8 - - WSW 1033,5 50 0 0,0
22.01.2020 17:00:00 11,1 9,1 - - 9 5 - - SW 1034,1 45 0 0,0
22.01.2020 16:00:00 11,2 9,3 - - 13 7 - - WSW 1034,1 55 0 0,0
22.01.2020 15:00:00 11,9 9,0 - - 15 8 - - WSW 1034,0 55 0 0,0
22.01.2020 14:00:00 12,1 9,0 - - 22 12 - - WSW 1033,9 50 0 0,0
22.01.2020 13:00:00 11,8 8,8 - - 22 12 - - WSW 1034,3 50 6 0,0
22.01.2020 12:00:00 11,8 9,1 - - 21 11 - - SW 1034,9 45 6 0,0
22.01.2020 11:00:00 11,0 8,4 - - 16 9 - - WSW 1035,0 45 30 0,0
22.01.2020 10:00:00 10,8 8,1 - - 22 12 - - WSW 1034,7 45 6 0,0
22.01.2020 09:00:00 10,6 8,1 6,0 6,0 21 11 - - WSW 1034,5 40 0 0,0
22.01.2020 08:00:00 10,5 8,0 - - 18 10 - - WSW 1034,4 40 0 0,0

tt = temperature
td = dewpoint
tt -20cm = temperature -20cm
tt -100cm = temperature -100cm
ff = wind speed
fx = gusts
dd = wind direction
ppp = reduced air pressure
vv = visibility
sd = sunshine duration
rr = precipitation

Next stations